Location: ?????? ??????
(44.3742°N, 135.2221°E)
Time: 10:43:16
(UTC+00:00)

Cosmos 1634 Rocket - Pass Details

Date: 19 May 2025
Orbit: 960 x 990 km, 82.9° (Epoch: 13 June)

Event Time Altitude Azimuth Distance (km) Brightness Sun altitude
Rises 18:20:43 0° 351° (N) 3,715 7.5 -10.5°
Reaches altitude 10° 18:23:15 10° 351° (N) 2,763 6.8 -10.1°
Maximum altitude 18:29:37 84° 263° (W) 1,001 4.0 -9.3°
Drops below altitude 10° 18:35:54 10° 177° (S) 2,736 6.0 -8.4°
Sets 18:38:24 0° 176° (S) 3,677 6.7 -8.1°
